| time (UTC) | temp F | wind direction | speed MPH | gust MPH | rain 1hr in | rain 24hr in | rain mn in | humidity % | barometer mb |
| 20260505061553 | 57 | 188 | 8.0 | 18.0 | 0.00 | 0.00 | 0.00 | 79 | 1006.0 |
| 20260505060051 | 58 | 178 | 6.0 | 13.0 | 0.00 | 0.00 | 0.00 | 79 | 1005.9 |
| 20260505054555 | 58 | 229 | 7.0 | 17.0 | 0.00 | 0.00 | 0.00 | 79 | 1005.7 |
| 20260505053047 | 58 | 178 | 7.0 | 14.0 | 0.00 | 0.00 | 0.00 | 78 | 1005.7 |
| 20260505051546 | 59 | 189 | 6.0 | 14.0 | 0.00 | 0.00 | 0.00 | 79 | 1005.6 |
| 20260505041544 | 62 | 205 | 6.0 | 15.0 | 0.00 | 0.00 | 0.00 | 75 | 1005.2 |
| 20260505040042 | 64 | 198 | 7.0 | 13.0 | 0.00 | 0.00 | 0.00 | 73 | 1005.1 |
| 20260505034541 | 65 | 178 | 6.0 | 12.0 | 0.00 | 0.00 | 0.00 | 67 | 1004.9 |
| 20260505033043 | 67 | 199 | 4.0 | 10.0 | 0.00 | 0.00 | 0.00 | 60 | 1004.8 |
| 20260505031553 | 67 | 182 | 4.0 | 7.0 | 0.00 | 0.00 | 0.00 | 59 | 1004.6 |
| 20260505030044 | 67 | 195 | 5.0 | 9.0 | 0.00 | 0.00 | 0.00 | 58 | 1004.7 |
| 20260505024548 | 67 | 202 | 4.0 | 8.0 | 0.00 | 0.00 | 0.00 | 60 | 1004.6 |
| 20260505023042 | 67 | 181 | 4.0 | 10.0 | 0.00 | 0.00 | 0.00 | 62 | 1004.6 |
| 20260505021537 | 70 | 195 | 3.0 | 6.0 | 0.00 | 0.00 | 0.00 | 64 | 1004.8 |
| 20260505020036 | 71 | 189 | 2.0 | 5.0 | 0.00 | 0.00 | 0.00 | 65 | 1004.9 |
| 20260505014555 | 71 | 209 | 4.0 | 9.0 | 0.00 | 0.00 | 0.00 | 59 | 1005.0 |
| 20260505013034 | 72 | 257 | 5.0 | 11.0 | 0.00 | 0.00 | 0.00 | 56 | 1005.0 |
| 20260505011540 | 74 | 242 | 5.0 | 9.0 | 0.00 | 0.00 | 0.00 | 54 | 1005.1 |
| 20260505010033 | 75 | 249 | 5.0 | 10.0 | 0.00 | 0.00 | 0.00 | 55 | 1005.1 |
| 20260505004533 | 75 | 246 | 3.0 | 11.0 | 0.00 | 0.00 | 0.00 | 54 | 1004.9 |
| 20260505003032 | 75 | 232 | 5.0 | 12.0 | 0.00 | 0.00 | 0.00 | 53 | 1004.9 |
| 20260505001531 | 76 | 211 | 4.0 | 11.0 | 0.00 | 0.00 | 0.00 | 53 | 1005.1 |
| 20260505000031 | 77 | 190 | 3.0 | 9.0 | 0.00 | 0.00 | 0.00 | 51 | 1005.2 |
| 20260504234528 | 77 | 249 | 2.0 | 8.0 | 0.00 | 0.00 | 0.00 | 50 | 1005.4 |
| 20260504233028 | 77 | 211 | 3.0 | 8.0 | 0.00 | 0.00 | 0.00 | 49 | 1005.4 |
| 20260504231525 | 77 | 250 | 2.0 | 8.0 | 0.00 | 0.00 | 0.00 | 47 | 1005.5 |
| 20260504230023 | 76 | 246 | 3.0 | 11.0 | 0.00 | 0.00 | 0.00 | 46 | 1005.6 |
| 20260504224527 | 76 | 244 | 4.0 | 10.0 | 0.00 | 0.00 | 0.00 | 46 | 1005.8 |
| 20260504223020 | 75 | 211 | 5.0 | 9.0 | 0.00 | 0.00 | 0.00 | 47 | 1005.9 |
| 20260504221522 | 76 | 259 | 3.0 | 12.0 | 0.00 | 0.00 | 0.00 | 46 | 1006.0 |
| 20260504220018 | 76 | 240 | 6.0 | 15.0 | 0.00 | 0.00 | 0.00 | 48 | 1005.9 |
| 20260504214519 | 75 | 262 | 6.0 | 12.0 | 0.00 | 0.00 | 0.00 | 50 | 1006.0 |
| 20260504213020 | 76 | 250 | 4.0 | 11.0 | 0.00 | 0.00 | 0.00 | 51 | 1006.1 |
| 20260504211518 | 75 | 258 | 4.0 | 8.0 | 0.00 | 0.00 | 0.00 | 49 | 1006.4 |
| 20260504210128 | 76 | 251 | 3.0 | 7.0 | 0.00 | 0.00 | 0.00 | 50 | 1006.2 |
| 20260504204606 | 75 | 254 | 3.0 | 7.0 | 0.00 | 0.00 | 0.00 | 51 | 1006.5 |
| 20260504203032 | 74 | 254 | 2.0 | 8.0 | 0.00 | 0.00 | 0.00 | 55 | 1006.6 |
| 20260504201530 | 74 | 257 | 2.0 | 8.0 | 0.00 | 0.00 | 0.00 | 56 | 1006.6 |
| 20260504200027 | 72 | 252 | 3.0 | 10.0 | 0.00 | 0.00 | 0.00 | 60 | 1006.7 |
| 20260504194527 | 72 | 256 | 3.0 | 8.0 | 0.00 | 0.00 | 0.00 | 59 | 1006.8 |
| 20260504191553 | 70 | 242 | 6.0 | 11.0 | 0.00 | 0.00 | 0.00 | 61 | 1006.6 |
| 20260504190002 | 70 | 260 | 4.0 | 11.0 | 0.00 | 0.00 | 0.00 | 63 | 1006.8 |
| 20260504184603 | 70 | 252 | 7.0 | 12.0 | 0.00 | 0.00 | 0.00 | 64 | 1006.8 |
| 20260504183031 | 71 | 263 | 5.0 | 9.0 | 0.00 | 0.00 | 0.00 | 65 | 1006.6 |
| 20260504181530 | 71 | 257 | 2.0 | 9.0 | 0.00 | 0.00 | 0.00 | 67 | 1006.8 |
| 20260504180028 | 70 | 235 | 5.0 | 8.0 | 0.00 | 0.00 | 0.00 | 68 | 1006.9 |
| 20260504174526 | 72 | 205 | 3.0 | 6.0 | 0.00 | 0.00 | 0.00 | 63 | 1006.7 |
| 20260504173022 | 73 | 15 | 1.0 | 3.0 | 0.00 | 0.00 | 0.00 | 53 | 1006.7 |
| 20260504171519 | 71 | 21 | 1.0 | 4.0 | 0.00 | 0.00 | 0.00 | 56 | 1006.8 |
| 20260504081505 | 58 | 20 | 0.0 | 1.0 | 0.00 | 0.00 | 0.00 | 75 | 1005.5 |